Location: Holyhead Bay
(53.3667°N, 4.6667°W)
Time: 19:25:59
(UTC+00:00)

Cosmos 389 Rocket - Pass Details

Date: 24 November 2020
Orbit: 442 x 473 km, 81.1° (Epoch: 16 January)

Event Time Altitude Azimuth Distance (km) Brightness Sun altitude
Rises 18:19:13 0° 191° (S) 2,440 6.4 -18.5°
Reaches altitude 10° 18:21:16 10° 191° (S) 1,570 5.4 -18.8°
Maximum altitude 18:24:42 86° 101° (E) 453 2.2 -19.3°
Enters shadow 18:25:26 53° 18° (NNE) 560 2.6 -19.4°
